When you browse on this site, cookies collect data to enhance your experience and personalize the content and advertising you see.
Visit our Privacy Policy to learn more. By continuing to use the site, you agree to this use of cookies and data.
  • In Lithuania
  • List of Countries
  • For 7 days
  • Water Temperature
  • Weather Map
  • Weather Widgets
  • user-avatar
    Login

    Hourly Weather Darwin

    Today, 13 November, Wednesday

    Time Temperature Precipitation Wind Pressure Humidity
    00:00 +30°C° 0 mm 4 mps 758 mmHg 69%
    01:00 +29°C° 0 mm 4 mps 758 mmHg 71%
    02:00 +29°C° 0 mm 4 mps 758 mmHg 72%
    03:00 +29°C° 0 mm 5 mps 757 mmHg 73%
    04:00 +29°C° 0 mm 3 mps 758 mmHg 75%
    05:00 +28°C° 0 mm 2 mps 758 mmHg 77%
    06:00 +28°C° 0 mm 1 mps 759 mmHg 78%
    07:00 +30°C° 0 mm 1 mps 759 mmHg 69%
    08:00 +33°C° 0 mm 1 mps 759 mmHg 61%
    09:00 +35°C° 0 mm 1 mps 759 mmHg 52%
    10:00 +37°C° 0 mm 2 mps 759 mmHg 49%
    11:00 +38°C° 0 mm 2 mps 758 mmHg 45%
    12:00 +38°C° 0 mm 3 mps 758 mmHg 42%
    13:00 +38°C° 0 mm 4 mps 757 mmHg 44%
    14:00 +37°C° 0 mm 4 mps 756 mmHg 45%
    15:00 +37°C° 0 mm 4 mps 756 mmHg 47%
    16:00 +36°C° 0 mm 4 mps 756 mmHg 50%
    17:00 +34°C° 0 mm 5 mps 756 mmHg 54%
    18:00 +33°C° 0 mm 5 mps 756 mmHg 57%
    19:00 +33°C° 0 mm 4 mps 756 mmHg 61%
    20:00 +32°C° 0 mm 4 mps 757 mmHg 65%
    21:00 +30°C° 0 mm 4 mps 758 mmHg 73%
    22:00 +30°C° 0 mm 4 mps 758 mmHg 73%
    23:00 +30°C° 0 mm 3 mps 758 mmHg 74%

    Tomorrow, 14 November, Thursday

    Time Temperature Precipitation Wind Pressure Humidity
    00:00 +30°C° 0 mm 2 mps 758 mmHg 75%
    01:00 +29°C° 0.4 mm 3 mps 758 mmHg 78%
    02:00 +29°C° 0.4 mm 3 mps 757 mmHg 81%
    03:00 +28°C° 0.4 mm 4 mps 757 mmHg 84%
    04:00 +28°C° 0 mm 3 mps 757 mmHg 84%
    05:00 +28°C° 0 mm 2 mps 758 mmHg 85%
    06:00 +28°C° 0 mm 2 mps 758 mmHg 85%
    07:00 +30°C° 0 mm 1 mps 758 mmHg 74%
    08:00 +33°C° 0 mm 1 mps 759 mmHg 63%
    09:00 +36°C° 0 mm 1 mps 759 mmHg 52%
    10:00 +37°C° 0 mm 1 mps 758 mmHg 45%
    11:00 +39°C° 0 mm 2 mps 758 mmHg 39%
    12:00 +42°C° 0 mm 3 mps 757 mmHg 33%
    13:00 +39°C° 0 mm 3 mps 757 mmHg 40%
    14:00 +37°C° 0 mm 4 mps 756 mmHg 47%
    15:00 +36°C° 0 mm 4 mps 755 mmHg 54%
    16:00 +35°C° 0 mm 5 mps 755 mmHg 57%
    17:00 +34°C° 0 mm 5 mps 755 mmHg 60%
    18:00 +34°C° 0 mm 5 mps 755 mmHg 63%
    19:00 +33°C° 0 mm 4 mps 755 mmHg 67%
    20:00 +31°C° 0 mm 3 mps 756 mmHg 71%
    21:00 +30°C° 0 mm 3 mps 757 mmHg 76%
    22:00 +30°C° 0 mm 2 mps 757 mmHg 75%
    23:00 +30°C° 0 mm 2 mps 757 mmHg 75%

    Day after tomorrow, 15 November, Friday

    Time Temperature Precipitation Wind Pressure Humidity
    00:00 +30°C° 0 mm 1 mps 757 mmHg 75%
    01:00 +30°C° 0 mm 2 mps 757 mmHg 77%
    02:00 +29°C° 0 mm 2 mps 756 mmHg 79%
    03:00 +29°C° 0 mm 2 mps 756 mmHg 80%
    04:00 +28°C° 0 mm 2 mps 756 mmHg 82%
    05:00 +28°C° 0 mm 1 mps 756 mmHg 83%
    06:00 +26°C° 0 mm 0 mps 757 mmHg 84%
    07:00 +30°C° 0 mm 1 mps 757 mmHg 73%
    08:00 +33°C° 0 mm 1 mps 758 mmHg 62%
    09:00 +35°C° 0 mm 1 mps 758 mmHg 51%
    10:00 +38°C° 0 mm 2 mps 757 mmHg 41%
    11:00 +40°C° 0 mm 3 mps 757 mmHg 31%
    12:00 +43°C° 0 mm 4 mps 757 mmHg 22%
    13:00 +43°C° 0 mm 5 mps 756 mmHg 25%
    14:00 +42°C° 0 mm 5 mps 755 mmHg 29%
    15:00 +41°C° 0 mm 5 mps 754 mmHg 32%
    16:00 +39°C° 0 mm 5 mps 754 mmHg 43%
    17:00 +36°C° 0 mm 5 mps 754 mmHg 53%
    18:00 +34°C° 0 mm 5 mps 755 mmHg 63%
    19:00 +33°C° 0 mm 4 mps 755 mmHg 66%
    20:00 +33°C° 0 mm 4 mps 756 mmHg 70%
    21:00 +32°C° 0 mm 4 mps 757 mmHg 73%
    22:00 +31°C° 0 mm 3 mps 757 mmHg 74%
    23:00 +30°C° 0 mm 3 mps 758 mmHg 75%

    16 November, Saturday

    Time Temperature Precipitation Wind Pressure Humidity
    00:00 +30°C° 0 mm 3 mps 758 mmHg 76%
    01:00 +30°C° 0 mm 3 mps 758 mmHg 77%
    02:00 +29°C° 0 mm 2 mps 757 mmHg 78%
    03:00 +29°C° 0 mm 2 mps 757 mmHg 79%
    04:00 +29°C° 0 mm 1 mps 757 mmHg 80%
    05:00 +29°C° 0 mm 1 mps 757 mmHg 81%
    06:00 +28°C° 0 mm 1 mps 757 mmHg 82%
    07:00 +31°C° 0 mm 1 mps 758 mmHg 72%
    08:00 +33°C° 0 mm 1 mps 758 mmHg 61%
    09:00 +36°C° 0 mm 1 mps 758 mmHg 51%
    10:00 +37°C° 0 mm 1 mps 758 mmHg 43%
    11:00 +40°C° 0 mm 2 mps 758 mmHg 35%
    12:00 +43°C° 0 mm 3 mps 757 mmHg 27%
    13:00 +42°C° 0 mm 4 mps 756 mmHg 33%
    14:00 +41°C° 0 mm 5 mps 756 mmHg 39%
    15:00 +39°C° 0 mm 5 mps 755 mmHg 44%
    16:00 +37°C° 0 mm 5 mps 755 mmHg 51%
    17:00 +35°C° 0 mm 5 mps 755 mmHg 57%
    18:00 +34°C° 0 mm 5 mps 755 mmHg 64%
    19:00 +33°C° 0 mm 5 mps 756 mmHg 67%
    20:00 +32°C° 0 mm 5 mps 757 mmHg 71%
    21:00 +32°C° 0 mm 4 mps 758 mmHg 75%
    22:00 +30°C° 0 mm 4 mps 758 mmHg 75%
    23:00 +30°C° 0 mm 3 mps 758 mmHg 76%

    17 November, Sunday

    Time Temperature Precipitation Wind Pressure Humidity
    00:00 +30°C° 0 mm 3 mps 758 mmHg 77%
    01:00 +29°C° 0 mm 3 mps 758 mmHg 77%
    02:00 +29°C° 0 mm 3 mps 757 mmHg 77%
    03:00 +29°C° 0 mm 3 mps 757 mmHg 77%
    04:00 +29°C° 0 mm 2 mps 757 mmHg 78%
    05:00 +28°C° 0 mm 1 mps 758 mmHg 79%
    06:00 +28°C° 0 mm 1 mps 758 mmHg 80%
    07:00 +31°C° 0 mm 1 mps 758 mmHg 69%
    08:00 +34°C° 0 mm 1 mps 759 mmHg 58%
    09:00 +36°C° 0 mm 1 mps 759 mmHg 47%
    10:00 +39°C° 0 mm 1 mps 759 mmHg 41%
    11:00 +40°C° 0 mm 2 mps 758 mmHg 35%
    12:00 +42°C° 0 mm 2 mps 758 mmHg 29%
    13:00 +42°C° 0 mm 3 mps 757 mmHg 34%
    14:00 +40°C° 0 mm 4 mps 756 mmHg 39%
    15:00 +39°C° 0 mm 5 mps 755 mmHg 44%
    16:00 +36°C° 0 mm 5 mps 755 mmHg 51%
    17:00 +35°C° 0 mm 5 mps 755 mmHg 57%
    18:00 +34°C° 0 mm 5 mps 755 mmHg 63%
    19:00 +33°C° 0 mm 5 mps 756 mmHg 67%
    20:00 +32°C° 0 mm 4 mps 757 mmHg 70%
    21:00 +32°C° 0 mm 4 mps 757 mmHg 74%
    22:00 +30°C° 0 mm 3 mps 758 mmHg 74%
    23:00 +30°C° 0 mm 3 mps 758 mmHg 75%

    18 November, Monday

    Time Temperature Precipitation Wind Pressure Humidity
    00:00 +30°C° 0 mm 3 mps 758 mmHg 75%
    01:00 +30°C° 0 mm 3 mps 757 mmHg 75%
    02:00 +29°C° 0 mm 2 mps 757 mmHg 76%
    03:00 +29°C° 0 mm 2 mps 757 mmHg 77%
    04:00 +29°C° 0 mm 2 mps 757 mmHg 77%
    05:00 +29°C° 0 mm 2 mps 757 mmHg 78%
    06:00 +28°C° 0 mm 1 mps 757 mmHg 79%
    07:00 +31°C° 0 mm 1 mps 758 mmHg 69%
    08:00 +33°C° 0 mm 1 mps 758 mmHg 59%
    09:00 +36°C° 0 mm 1 mps 758 mmHg 49%
    10:00 +38°C° 0 mm 2 mps 758 mmHg 43%
    11:00 +40°C° 0 mm 2 mps 757 mmHg 37%
    12:00 +42°C° 0 mm 3 mps 757 mmHg 31%
    13:00 +39°C° 0 mm 3 mps 756 mmHg 38%
    14:00 +38°C° 0 mm 4 mps 755 mmHg 45%
    15:00 +36°C° 0 mm 4 mps 755 mmHg 51%
    16:00 +35°C° 0 mm 5 mps 755 mmHg 56%
    17:00 +34°C° 0 mm 5 mps 755 mmHg 60%
    18:00 +33°C° 0 mm 6 mps 755 mmHg 64%
    19:00 +33°C° 0 mm 5 mps 755 mmHg 68%
    20:00 +32°C° 0 mm 4 mps 756 mmHg 71%
    21:00 +30°C° 0 mm 4 mps 756 mmHg 74%
    22:00 +30°C° 0 mm 3 mps 756 mmHg 75%
    23:00 +30°C° 0 mm 3 mps 757 mmHg 77%
    Show more